sat.trackr.live / text

‹ back to catalog

KUIPER-00151

NORAD 65771 · 2025-217K

PAYLOAD ACTIVE UNKNOWN

§ Identity

Operator
Country
US
Launch date
2025-09-25
Launch site
AFETR
Launch vehicle
Mass (kg)
RCS (m²)

External: N2YO · Heavens-Above · Gunter

§ Orbital elements

Epoch: 2026-05-25T03:51:35.489952Z

Period
97.30 min
Inclination
51.9009°
Eccentricity
0.0001108
Mean motion
14.79938990 rev/d
Perigee alt
628.7 km
Apogee alt
630.3 km
Semi-major
7,007.7 km
B*
2.7298e-4
RAAN
64.9549°
Arg perigee
80.5507°
Mean anomaly
279.5581°
Rev number
3,620

§ Raw data

KUIPER-001511 65771U 25217K   26145.16082743  .00001861  00000+0  27298-3 0  99982 65771  51.9009  64.9549 0001108  80.5507 279.5581 14.79938990 36201

JSON: /api/v1/satellites/65771 · /tle

For live sub-satellite position, see the globe view (requires WebGL).

§ Visibility from observer

Set your observer location to see the next 7 days of passes ≥ 10°. The values pass through the URL so the page stays shareable.

No JS? Fill the form by hand. The geolocation button needs JavaScript.